Location: Newark
(49.8348°N, 24.0280°E)
Time: 01:50:07
(UTC+00:00)

Transit 2A - Visible Passes

Search period start: 26 January 2020 00:00
Search period end: 05 February 2020 00:00
Orbit: 601 x 958 km, 66.7° (Epoch: 25 January)

Date Brightness Start Highest point End Pass type
(mag) Time Alt. Az. Time Alt. Az. Time Alt. Az.
26 Jan 8.0 02:43:46 19° SSE 02:43:46 19° SSE 02:45:14 10° SSE visible
26 Jan 7.9 04:24:19 13° SW 04:24:19 13° SW 04:25:22 10° SW visible
26 Jan 7.7 17:20:58 10° SSE 17:21:35 13° SSE 17:21:35 13° SSE visible
27 Jan 8.1 03:51:56 12° SSW 03:51:56 12° SSW 03:52:30 10° SSW visible
27 Jan 7.4 16:47:46 10° SSE 16:49:16 15° SE 16:49:16 15° SE visible
27 Jan 8.0 18:28:51 10° SW 18:29:49 16° SW 18:29:49 16° SW visible
28 Jan 7.5 16:15:23 10° ESE 16:16:42 11° ESE 16:16:53 11° ESE visible
28 Jan 6.6 17:54:41 10° SSW 17:57:26 38° SSW 17:57:26 38° SSW visible
29 Jan 5.5 17:20:41 10° SSW 17:24:58 57° ESE 17:24:58 57° ESE visible
29 Jan 8.5 19:04:46 10° W 19:05:30 14° W 19:05:30 14° W visible
30 Jan 6.0 16:46:52 10° S 16:50:56 39° ESE 16:52:26 29° ENE visible
30 Jan 7.4 18:30:09 10° WSW 18:32:58 28° WNW 18:32:58 28° WNW visible
31 Jan 6.6 16:13:17 10° S 16:16:56 26° ESE 16:19:49 14° ENE visible
31 Jan 6.4 17:55:41 10° WSW 17:59:51 45° NW 18:00:21 42° NNW visible
01 Feb 5.9 17:21:20 10° SW 17:25:39 63° NW 17:27:39 30° NNE visible
01 Feb 8.4 19:06:58 10° WNW 19:08:10 14° NW 19:08:10 14° NW visible
02 Feb 5.5 16:47:08 10° SW 16:51:30 89° WNW 16:54:53 17° NE visible
02 Feb 7.8 18:32:06 10° W 18:35:17 19° NNW 18:35:24 19° NNW visible
03 Feb 5.6 16:13:06 10° SSW 16:17:24 62° ESE 16:21:44 10° NE visible
03 Feb 7.5 17:57:20 10° W 18:00:55 24° NW 18:02:34 20° N visible
04 Feb 7.1 17:22:42 10° WSW 17:26:35 31° NW 17:29:40 15° NNE visible
04 Feb 8.6 19:09:43 10° NW 19:10:11 11° NNW 19:10:11 11° NNW visible
